Location: *
(48.7358°N, 0.3111°E)
Time: 01:19:51
(UTC+00:00)

CZ-2C R/B - Pass Details

Date: 22 October 2019
Orbit: 668 x 784 km, 98.1° (Epoch: 17 November)

Event Time Altitude Azimuth Distance (km) Brightness Sun altitude
Rises 04:16:10 0° 16° (NNE) 3,287 6.1 -22.5°
Reaches altitude 10° 04:18:32 10° 19° (NNE) 2,353 5.4 -22.1°
Maximum altitude 04:23:43 64° 101° (ESE) 865 2.9 -21.3°
Drops below altitude 10° 04:28:47 10° 183° (S) 2,305 4.9 -20.5°
Sets 04:31:05 0° 187° (S) 3,213 5.6 -20.1°
